Location: Bambrugge
(50.9212°N, 3.9299°E)
Time: 18:54:39
(UTC+00:00)

Helios 1A Rocket - Pass Details

Date: 19 August 2024
Orbit: 512 x 533 km, 98.3° (Epoch: 07 September)

Event Time Altitude Azimuth Distance (km) Brightness Sun altitude
Exits shadow 00:42:40 41° 72° (ENE) 795 3.8 -25.3°
Maximum altitude 00:42:44 41° 68° (ENE) 794 3.8 -25.3°
Drops below altitude 10° 00:46:26 10° 358° (N) 1,810 6.4 -25.1°
Sets 00:48:37 0° 351° (N) 2,703 7.4 -25.1°
